Lid_Strength_Index
3 2 1 1 1 0 -1 -1 -1 -1 -1 -1 -1 -1 -1 -0 -0 0 -0 0 1 1 1 1 1 -1 1 5 6 2 0 -0 4 4 6 7 8 8 9 8 8 10 9 9 8 9 9
3 2 1 1 1 0 -0 -1 -1 -1 -2 -2 -2 -1 -1 0 0 0 0 1 1 1 2 1 0 -0 3 9 2 1 2 3 4 6 6 7 8 7 8 9 9 9 9 9 9 9 9
3 2 2 1 1 0 -0 -1 -1 -1 -2 -2 -2 -2 -0 0 1 1 0 1 1 1 1 1 1 1 5 7 3 2 2 4 4 5 7 7 6 8 8 10 8 9 11 10 9 10 11
3 2 2 1 1 -0 -0 -1 -1 -1 -2 -2 -2 -1 -0 0 0 -1 -1 -1 -0 0 1 0 0 2 7 2 2 3 4 5 4 4 5 6 6 8 9 8 10 11 11 12 10 10 10
4 3 2 1 1 -0 -0 -1 -1 -1 -1 -1 -0 -0 -0 -0 -1 -1 -1 -1 -1 -1 -1 0 2 4 8 1 4 4 4 6 5 5 5 6 6 9 10 11 12 12 12 13 12 10 10
4 3 2 2 1 -0 -1 0 -0 -1 -1 -0 0 0 0 -1 -0 -0 -1 -1 -1 0 1 2 3 7 6 7 4 5 4 4 6 6 7 8 8 10 10 12 14 14 14 13 13 11 12
5 4 3 2 2 0 -1 -1 0 -0 -1 -0 0 0 0 0 -0 1 1 2 4 6 4 7 8 7 6 4 4 5 5 6 7 8 10 9 11 12 12 12 13 13 14 14 12 11 12
5 5 3 2 2 1 -0 -1 -1 0 -0 -1 -0 0 1 1 0 -0 -0 4 6 4 8 5 5 5 5 4 8 6 4 8 8 11 10 11 12 11 11 12 13 13 14 13 11 11 11
4 5 4 2 2 1 0 0 -0 -0 -0 0 -0 0 1 1 1 0 2 3 1 1 7 7 5 6 6 5 8 7 6 7 9 11 11 11 11 10 12 12 13 12 13 12 13 10 9
3 5 5 3 2 2 1 0 0 0 -0 0 1 -0 0 1 2 1 3 1 -0 0 10 10 7 6 5 5 9 5 5 7 9 11 11 11 11 12 12 13 12 13 10 11 11 12 16
4 3 5 4 3 2 2 0 0 0 1 0 0 1 1 0 1 2 2 0 -0 2 17 8 8 3 5 8 8 8 5 7 10 11 10 12 11 11 11 11 10 11 9 10 11 13 14
4 4 4 5 3 3 2 1 0 0 1 1 1 2 1 2 1 2 1 1 2 13 18 11 7 8 9 8 8 8 7 6 7 9 9 10 8 9 9 9 9 8 10 10 11 12 18
3 4 4 5 4 3 3 2 1 1 1 1 1 3 3 2 3 2 2 3 13 16 9 12 10 8 9 10 9 9 10 10 11 15 14 10 10 8 8 10 8 10 13 17 19 19 18
3 4 4 4 6 4 3 3 2 1 1 2 2 3 4 3 2 2 3 7 15 12 11 8 9 9 11 9 10 9 10 11 9 10 12 15 16 10 8 10 12 12 13 17 21 20 17
4 4 4 5 6 5 3 3 2 1 1 3 4 2 3 3 3 3 5 14 14 11 9 10 9 11 11 10 10 10 11 11 10 9 13 14 14 8 8 8 9 13 15 11 16 14 18
3 3 4 4 6 6 4 2 2 2 2 4 3 3 4 3 2 4 8 12 10 8 8 8 13 10 13 11 11 11 11 9 10 8 8 11 15 9 9 8 8 10 10 16 16 20 21
3 3 4 4 5 6 4 3 2 3 3 5 4 4 4 3 3 5 12 10 9 8 8 9 10 11 10 11 11 11 11 9 8 9 8 10 12 12 10 12 12 13 14 14 14 15 19
4 3 4 5 5 6 5 4 3 3 4 5 5 9 4 3 7 6 9 9 9 9 8 9 9 10 11 10 11 11 11 10 7 8 11 10 12 15 12 10 9 10 12 13 16 18 15
3 4 3 4 5 5 6 6 4 3 5 5 6 5 3 4 10 9 9 9 9 9 9 9 10 9 9 11 12 11 10 8 8 9 10 10 12 16 14 12 11 12 12 12 13 14 16
4 4 4 4 5 4 5 6 5 4 5 5 6 9 5 5 7 8 9 10 10 8 9 8 9 8 9 10 10 11 11 9 8 8 8 8 11 14 16 14 12 14 12 12 13 16 15
4 4 4 5 5 5 5 5 6 6 6 5 7 9 9 9 8 9 9 10 10 10 8 8 9 9 10 12 11 11 10 9 8 8 8 9 12 12 12 12 12 12 12 12 13 12 15
4 4 4 5 6 5 5 5 6 7 7 7 8 8 8 9 10 9 10 10 10 10 9 10 10 9 9 10 10 11 10 10 10 9 10 9 12 11 14 11 11 12 11 11 11 11 11
3 4 4 5 6 5 6 5 5 7 7 8 8 8 8 11 10 10 9 10 10 9 8 8 9 9 10 9 8 8 7 7 8 9 10 11 12 13 15 13 13 15 13 12 11 10 10
4 4 5 5 6 6 6 6 5 6 8 9 9 8 10 11 10 10 11 10 10 9 10 9 8 9 8 6 6 7 8 8 8 8 8 11 12 12 15 14 17 12 10 10 11 10 9
4 4 5 5 7 6 6 6 6 6 7 9 9 9 10 12 11 11 11 11 10 9 10 9 8 7 6 8 10 11 11 11 11 9 9 9 11 13 15 16 13 12 13 12 12 12 9
4 4 5 5 7 7 6 6 6 6 7 8 10 10 11 12 12 11 11 10 11 10 10 10 8 7 8 9 11 14 15 14 14 13 11 10 10 13 14 17 19 14 11 10 10 14 10
4 4 4 5 5 7 7 7 6 6 8 8 9 10 11 13 11 11 12 11 9 10 11 10 9 9 8 11 13 14 14 13 15 15 15 14 14 15 15 16 14 11 10 10 15 14 10
4 4 4 5 5 6 7 6 6 6 8 8 9 9 10 12 12 12 11 11 11 10 11 10 11 11 10 12 13 13 13 12 14 12 13 14 15 15 14 16 18 10 11 13 10 9 9
4 4 4 4 5 5 6 7 6 6 7 9 9 9 9 11 11 12 11 9 9 9 10 10 11 10 9 11 11 11 13 12 13 16 12 15 13 13 13 13 10 9 9 8 9 9 9